Tracking 31027 objects as of 19-Jul-2025
HD Live streaming from Space Station
objects crossing your sky now

DELTA 1 R/B

Track DELTA 1 R/B now!
10-day predictions


NORAD ID: 3767
Int'l Code: 1969-016B
Perigee: 1,426.9 km
Apogee: 1,503.6 km
Inclination: 101.4 °
Period: 115.1 minutes
Semi major axis: 7836 km
RCS: 0.5861 m2 (medium)
Launch date: February 26, 1969
Source: United States (US)
Launch site: AIR FORCE EASTERN TEST RANGE (AFETR)

Note: This is a ROCKET BODY
Your satellite tracking list
PRISMA
Track 1 satellite(s)




NASA's NSSDC Master Catalog

Two Line Element Set (TLE):
1 03767U 69016B   25199.58271147 -.00000030  00000-0  81414-4 0  9992
2 03767 101.3888 223.1239 0048957 266.7401 267.0431 12.51522995575095
Source of the keplerian elements: AFSPC